Home > Weather > Québec > Past weeks

Flag for Canada Past Weather in Québec, Quebec, Canada — Yesterday and Last 2 Weeks

Now
57 °F

Cloudy.


Feels Like: 55 °F
Forecast: 54 / 77 °F
Wind: 9 mph from East

Location: Quebec Weather Station

Current Time: May 27, 2016 at 12:14:38 PM

Latest Report: May 27, 2016 at 11:54 AM


Visibility: 8 mi

Pressure: 29.98 "Hg

Humidity: 94%

Dew Point: 55 °F

Location of QuébecLocation

Past Weather in Québec — Graph

°F

Québec Temperature Yesterday

Maximum temperature yesterday: 70 °F (at 2:00 PM)
Minimum temperature yesterday: 48 °F (at 3:00 AM)
Average temperature yesterday: 59 °F

High & Low Weather Summary for the Past Weeks

 TemperatureHumidityPressure
High84 °F (May 24, 3:00 PM)100% (May 13, 9:00 PM)30.17 "Hg (May 13, 9:00 PM)
Low32 °F (May 16, 3:00 AM)16% (May 24, 1:00 PM)29.44 "Hg (May 15, 4:51 AM)
Average57 °F64%29.90 "Hg
* Reported May 12 11:00 AM — May 27 11:00 AM, Québec, Weather by CustomWeather, © 2016

Note: Actual official high and low records may vary slightly from our data, if they occured in-between our weather recording intervals... More about our weather records

Advertising

Québec Weather History for the Previous 24 Hours

Scroll right to see more
 ConditionsComfort  
Time TempWeatherWind HumidityBarometerVisibility
11:00 AM
Fri, May 27
55 °FThunderstorms. Fog.6 mph94%30.02 "Hg5 mi
10:00 AM55 °FLight rain. Low clouds.10 mph88%30.01 "Hg15 mi
9:00 AM57 °FLow clouds.10 mph82%30.03 "Hg15 mi
8:00 AM55 °FOvercast.10 mph88%30.04 "Hg15 mi
7:00 AM54 °FMostly cloudy.10 mph88%30.03 "Hg10 mi
6:00 AM52 °FLight rain. More clouds than sun.13 mph94%30.05 "Hg10 mi
5:00 AM54 °FLight rain. Fog.13 mph88%30.04 "Hg6 mi
4:00 AM54 °FLight rain. Mostly cloudy.8 mph88%30.06 "Hg15 mi
3:00 AM55 °FLight rain. Mostly cloudy.13 mph77%30.06 "Hg15 mi
2:00 AM57 °FOvercast.12 mph67%30.07 "Hg15 mi
1:00 AM57 °FMostly cloudy.10 mph67%30.07 "Hg15 mi
12:00 AM55 °FMostly cloudy.9 mph67%30.11 "Hg15 mi
11:00 PM
Thu, May 26
55 °FPassing clouds.12 mph67%30.11 "Hg15 mi
10:00 PM55 °FPassing clouds.13 mph67%30.11 "Hg15 mi
9:00 PM59 °FPartly sunny.12 mph63%30.11 "Hg30 mi
8:00 PM63 °FPartly sunny.9 mph52%30.11 "Hg30 mi
7:00 PM64 °FPartly sunny.9 mph49%30.11 "Hg30 mi
6:00 PM66 °FPartly sunny.10 mph46%30.11 "Hg30 mi
5:00 PM68 °FPartly sunny.12 mph43%30.11 "Hg30 mi
4:00 PM70 °FScattered clouds.12 mph40%30.10 "Hg30 mi
3:00 PM70 °FScattered clouds.9 mph43%30.10 "Hg30 mi
2:00 PM70 °FPassing clouds.6 mph40%30.11 "Hg30 mi
1:00 PM66 °FScattered clouds.8 mph46%30.12 "Hg30 mi
12:00 PM64 °FPassing clouds.7 mph56%30.14 "Hg30 mi
Weather by CustomWeather, © 2016

See weather overviewHow to use our weather pages